Location: Smoky Mountain Stargaze
(35.4252°N, 83.3329°W)
Time: 19:50:49
(UTC-04:00)

Amateur Radio Satellites - All Passes

Search period start: 28 April 2016 19:20
Search period end: 29 April 2016 19:20
Location: Smoky Mountain Stargaze, 35.4252°N, 83.3329°W

Satellite Date Start Highest point End Downlink Frequencies (MHz)
Time Altitude Azimuth
GOMX 1 28 Apr 19:43:28 19:48:15 85° 78° (ENE) 19:53:26 467.674
CUTE-I 28 Apr 19:44:10 19:49:11 41° 261° (W) 19:54:12 437.470
BRITE-PL 28 Apr 19:45:49 19:50:07 41° 263° (W) 19:54:47 437.365/2234.400
CINEMA 3 28 Apr 19:47:21 19:50:06 15° 65° (ENE) 19:52:53 145.822/145.860
STRAND 1 28 Apr 19:49:25 19:53:05 20° 95° (E) 19:56:44 437.568
M-CUBED/EXP-1 PRIME 28 Apr 19:55:18 19:59:47 46° 256° (WSW) 20:04:21 437.505
DOVE 4 28 Apr 20:03:32 20:08:25 68° 75° (ENE) 20:13:35 437.250
CUTE 1.7 + AOD 2 28 Apr 20:03:51 20:06:38 17° 69° (ENE) 20:09:26 437.475
AUBIESAT-1 28 Apr 20:18:46 20:22:51 31° 259° (WSW) 20:26:59 437.475
Cubesat XI-IV 28 Apr 20:29:11 20:32:22 16° 267° (W) 20:35:33 437.490
CUBESAT XI-V 28 Apr 20:29:15 20:31:19 13° 295° (WNW) 20:33:23 437.345
Cosmos 2491 28 Apr 20:33:09 20:41:09 41° 273° (W) 20:49:07 435.465 / 435.565
SEEDS 28 Apr 20:38:46 20:42:28 31° 72° (ENE) 20:46:10 437.485
YUBILEINY 28 Apr 20:41:34 20:50:18 73° 278° (W) 20:59:03 435.215
PRISM 28 Apr 20:47:04 20:48:58 13° 93° (E) 20:50:52 437.425
BEESAT 2 28 Apr 20:48:34 20:52:33 78° 301° (WNW) 20:56:33 435.950
BEESAT 3 28 Apr 20:50:48 20:54:32 40° 303° (WNW) 20:58:17 437.485
COMPASS 1 28 Apr 20:51:00 20:54:39 31° 72° (ENE) 20:58:18 437.405
HO-68 28 Apr 20:54:02 21:01:13 84° 74° (ENE) 21:08:24 435.675
CANX-2 28 Apr 21:04:11 21:08:24 75° 258° (WSW) 21:12:38 2200.000
CUBEBUG 2 28 Apr 21:04:59 21:09:09 31° 71° (ENE) 21:13:17 437.445
Oscar 11 28 Apr 21:06:33 21:09:06 15° 67° (ENE) 21:11:38 145.826/435.025
UWE-3 28 Apr 21:08:11 21:11:49 23° 70° (ENE) 21:15:26 435.000/436.395/437.385
FUNcube-1 28 Apr 21:11:11 21:13:48 15° 67° (ENE) 21:16:24 145.935
JUGNU 28 Apr 21:12:37 21:16:06 16° 173° (S) 21:19:34 437.505
CINEMA 3 28 Apr 21:21:50 21:26:41 57° 260° (W) 21:31:39 145.822/145.860
Cosmos 2504 28 Apr 21:25:14 21:32:26 55° 92° (E) 21:39:25 435.465 / 435.565
AAUSAT CUBESAT 2 28 Apr 21:26:03 21:30:08 67° 76° (ENE) 21:34:13 437.432
STRAND 1 28 Apr 21:27:36 21:32:22 41° 289° (WNW) 21:37:07 437.568
CUTE 1.7 + AOD 2 28 Apr 21:38:24 21:42:12 33° 262° (W) 21:46:02 437.475
AIST 2 28 Apr 21:42:24 21:45:41 23° 111° (ESE) 21:48:59 435.215
DELFI C3 28 Apr 21:44:33 21:47:16 18° 69° (ENE) 21:49:58 145.870
DOVE 4 28 Apr 21:45:01 21:46:36 11° 271° (W) 21:48:13 437.250
ZACube-1 28 Apr 21:48:53 21:53:12 42° 74° (ENE) 21:57:28 437.345
RS-15 28 Apr 21:53:19 22:02:40 33° 104° (ESE) 22:12:24 29.354- 29.394
HUMSAT D 28 Apr 21:59:56 22:01:48 13° 67° (ENE) 22:03:40 437.325/437.525
SRMSAT 28 Apr 22:04:52 22:06:37 11° 166° (SSE) 22:08:23 437.500
SEEDS 28 Apr 22:15:27 22:18:12 17° 266° (W) 22:20:58 437.485
PRISM 28 Apr 22:20:31 22:24:27 42° 287° (WNW) 22:28:22 437.425
COMPASS 1 28 Apr 22:27:30 22:30:14 17° 266° (W) 22:32:59 437.405
Oscar 11 28 Apr 22:40:49 22:44:52 39° 262° (W) 22:48:56 145.826/435.025
CUBEBUG 2 28 Apr 22:41:55 22:45:43 23° 265° (W) 22:49:30 437.445
UWE-3 28 Apr 22:43:58 22:48:05 30° 263° (W) 22:52:11 435.000/436.395/437.385
FUNcube-1 28 Apr 22:45:16 22:49:39 45° 261° (W) 22:53:58 145.935
YUBILEINY 28 Apr 22:45:54 22:48:39 12° 298° (WNW) 22:51:26 435.215
HO-68 28 Apr 22:45:59 22:49:36 14° 269° (W) 22:53:14 435.675
UNISAT 6 28 Apr 23:00:09 23:02:57 17° 94° (E) 23:05:44 437.425
AO-85 28 Apr 23:00:15 23:04:08 24° 50° (NE) 23:07:45 145.980
JUGNU 28 Apr 23:00:37 23:04:22 17° 183° (S) 23:08:08 437.505
CUBEBUG 1 28 Apr 23:17:07 23:19:02 13° 65° (ENE) 23:20:59 437.445
DELFI C3 28 Apr 23:18:34 23:21:56 27° 263° (W) 23:25:18 145.870
TIGRISAT 28 Apr 23:18:38 23:22:17 26° 96° (E) 23:25:52 435.000
AIST 2 28 Apr 23:20:31 23:24:02 27° 306° (NW) 23:27:35 435.215
Cosmos 2504 28 Apr 23:20:39 23:26:08 22° 288° (WNW) 23:31:32 435.465 / 435.565
ZACube-1 28 Apr 23:26:54 23:29:36 15° 267° (W) 23:32:18 437.345
VELOX 1 28 Apr 23:30:38 23:33:46 19° 68° (ENE) 23:36:57 145.980
HUMSAT D 28 Apr 23:32:53 23:37:00 47° 261° (W) 23:41:06 437.325/437.525
ANTELSAT 28 Apr 23:41:22 23:45:38 52° 100° (E) 23:49:47 437.575/2403.000
DX 1 28 Apr 23:43:16 23:46:45 24° 69° (ENE) 23:50:15 434.975-435.025
SRMSAT 28 Apr 23:51:18 23:55:01 17° 176° (S) 23:58:44 437.500
UKube-1 28 Apr 23:58:05 00:01:46 28° 70° (ENE) 00:05:30 .
ESTCUBE 1 29 Apr 00:00:26 00:04:50 59° 74° (ENE) 00:09:14 437.505/2401.250
AISAT 29 Apr 00:00:47 00:05:00 45° 73° (ENE) 00:09:15 437.250
RS-15 29 Apr 00:03:05 00:14:11 64° 304° (NW) 00:26:00 29.354- 29.394
50 SAT 29 Apr 00:11:14 00:14:52 66° 76° (ENE) 00:18:31 437.505
GONETS M04 29 Apr 00:31:34 00:37:49 22° 81° (E) 00:44:02
QB50P2 29 Apr 00:31:43 00:35:40 37° 98° (E) 00:39:34 145.880/145.840
POLYITAN 1 29 Apr 00:33:48 00:37:45 37° 98° (E) 00:41:40 437.675
UNISAT 6 29 Apr 00:35:50 00:39:46 34° 288° (WNW) 00:43:37 437.425
SPROUT 29 Apr 00:36:14 00:40:11 36° 72° (ENE) 00:44:10 437.525
POPSAT HIP 1 29 Apr 00:37:38 00:41:39 41° 99° (E) 00:45:38 437.405
DUCHIFAT 1 29 Apr 00:37:52 00:41:48 37° 98° (E) 00:45:41 145.980
AO-85 29 Apr 00:40:33 00:44:37 31° 249° (WSW) 00:48:23 145.980
QB50P1 29 Apr 00:41:16 00:45:22 46° 100° (E) 00:49:25 145.935-145.965
JUGNU 29 Apr 00:50:35 00:52:38 12° 193° (SSW) 00:54:40 437.505
CUBEBUG 1 29 Apr 00:50:37 00:54:50 50° 260° (W) 00:59:07 437.445
TIGRISAT 29 Apr 00:55:28 00:58:50 22° 291° (WNW) 01:02:07 435.000
VELOX 1 29 Apr 01:06:02 01:09:59 32° 262° (W) 01:13:59 145.980
AIST 1 29 Apr 01:14:57 01:18:42 31° 90° (E) 01:22:30
NANOSAT C BR1 29 Apr 01:18:39 01:22:50 62° 285° (WNW) 01:26:59 145.865
DX 1 29 Apr 01:19:14 01:22:48 25° 263° (W) 01:26:25 434.975-435.025
ANTELSAT 29 Apr 01:20:16 01:21:50 12° 295° (WNW) 01:23:23 437.575/2403.000
TISAT 1 29 Apr 01:27:15 01:31:13 40° 73° (ENE) 01:35:14 437.305
UKube-1 29 Apr 01:34:34 01:37:48 20° 264° (W) 01:41:02 .
BUGSAT 1 29 Apr 01:38:47 01:43:01 83° 283° (WNW) 01:47:10 437.445
AISAT 29 Apr 01:39:27 01:41:41 14° 267° (W) 01:43:56 437.250
SRMSAT 29 Apr 01:39:55 01:43:28 16° 186° (S) 01:47:00 437.500
ESTCUBE 1 29 Apr 01:41:27 01:41:58 10° 269° (W) 01:42:29 437.505/2401.250
Cosmos 2499 29 Apr 01:46:00 01:52:11 32° 87° (E) 01:58:16 435.465 / 435.565
JAS-2 29 Apr 01:51:14 01:58:20 37° 96° (E) 02:05:25 435.910
QB50P2 29 Apr 02:08:35 02:11:07 16° 293° (WNW) 02:13:40 145.880/145.840
CUSAT 1 29 Apr 02:09:12 02:13:47 18° 71° (ENE) 02:18:43 437.405
POLYITAN 1 29 Apr 02:10:43 02:13:12 15° 293° (WNW) 02:15:42 437.675
SPROUT 29 Apr 02:13:36 02:16:15 16° 267° (W) 02:18:54 437.525
DUCHIFAT 1 29 Apr 02:14:39 02:17:09 15° 293° (WNW) 02:19:38 145.980
POPSAT HIP 1 29 Apr 02:14:45 02:17:03 14° 293° (WNW) 02:19:21 437.405
O/OREOS (USA 219) 29 Apr 02:15:59 02:20:20 45° 66° (ENE) 02:24:38 437.305
QB50P1 29 Apr 02:18:46 02:20:41 13° 294° (WNW) 02:22:37 145.935-145.965
ITUPSAT 1 29 Apr 02:21:33 02:25:38 29° 70° (ENE) 02:29:45 437.325
RS-15 29 Apr 02:21:35 02:29:41 21° 332° (NNW) 02:38:07 29.354- 29.394
GONETS M04 29 Apr 02:24:54 02:33:42 69° 278° (W) 02:42:33
SWISSCUBE 29 Apr 02:32:58 02:37:28 44° 72° (ENE) 02:41:58 437.505
PCSat 29 Apr 02:38:03 02:43:22 54° 60° (ENE) 02:48:39 145.827
Oscar 19 29 Apr 02:39:08 02:44:11 49° 100° (E) 02:49:11 437.125/150
AIST 1 29 Apr 02:53:28 02:56:20 17° 286° (WNW) 02:59:14
TISAT 1 29 Apr 03:04:51 03:07:02 14° 267° (W) 03:09:14 437.305
BEESAT 29 Apr 03:06:25 03:11:10 88° 252° (WSW) 03:15:58 436.000
KKS-1 29 Apr 03:12:24 03:13:56 12° 64° (ENE) 03:15:29 437.445
AO-7 29 Apr 03:35:22 03:37:38 11° 90° (E) 03:39:54 29.400- 29.500
JAS-2 29 Apr 03:36:03 03:43:13 43° 291° (WNW) 03:50:29 435.910
Gurwin Techsat 1B 29 Apr 03:37:02 03:42:21 71° 102° (ESE) 03:47:38 435.225
Cosmos 2499 29 Apr 03:38:37 03:45:06 36° 284° (WNW) 03:51:31 435.465 / 435.565
STARS 29 Apr 03:40:52 03:42:38 12° 65° (ENE) 03:44:24 437.465
ITAMSAT 1 29 Apr 03:48:04 03:52:48 35° 98° (E) 03:57:31 435.822/435.867
CUSAT 1 29 Apr 03:49:14 03:56:20 84° 263° (W) 04:04:23 437.405
DANDE 29 Apr 03:51:32 03:57:45 54° 80° (E) 04:05:24 436.750
O/OREOS (USA 219) 29 Apr 03:57:02 03:59:15 14° 261° (W) 04:01:28 437.305
ITUPSAT 1 29 Apr 03:59:34 04:03:25 24° 264° (W) 04:07:17 437.325
SWISSCUBE 29 Apr 04:12:32 04:15:25 16° 266° (W) 04:18:19 437.505
MOZHAYETS 4 29 Apr 04:17:03 04:21:14 36° 72° (ENE) 04:25:26
Oscar 19 29 Apr 04:19:38 04:23:04 18° 295° (WNW) 04:26:30 437.125/150
PCSat 29 Apr 04:22:50 04:26:16 17° 256° (WSW) 04:29:42 145.827
GONETS M04 29 Apr 04:30:08 04:32:14 11° 299° (WNW) 04:34:21
RS-15 29 Apr 04:43:12 04:49:15 15° 10° (N) 04:55:22 29.354- 29.394
KKS-1 29 Apr 04:45:33 04:49:57 59° 259° (W) 04:54:24 437.445
BEESAT 2 29 Apr 05:10:01 05:13:15 23° 53° (NE) 05:16:27 435.950
BEESAT 3 29 Apr 05:10:49 05:14:33 39° 57° (ENE) 05:18:15 437.485
STARS 29 Apr 05:14:08 05:18:29 55° 259° (W) 05:22:51 437.465
Gurwin Techsat 1B 29 Apr 05:19:15 05:21:38 13° 297° (WNW) 05:24:00 435.225
AO-7 29 Apr 05:23:08 05:31:29 76° 105° (ESE) 05:39:49 29.400- 29.500
ITAMSAT 1 29 Apr 05:27:57 05:32:03 24° 293° (WNW) 05:36:08 435.822/435.867
CUSAT 1 29 Apr 05:34:24 05:37:46 14° 275° (W) 05:41:18 437.405
DANDE 29 Apr 05:35:12 05:40:24 25° 269° (W) 05:46:25 436.750
CUBESAT XI-V 29 Apr 05:50:10 05:54:25 38° 72° (ENE) 05:58:41 437.345
MOZHAYETS 4 29 Apr 05:55:24 05:58:29 18° 266° (W) 06:01:34
HORYU 2 29 Apr 06:06:59 06:11:23 65° 102° (ESE) 06:15:45 437.375
BEESAT 2 29 Apr 06:47:44 06:51:01 25° 248° (WSW) 06:54:18 435.950
LilacSat-2 29 Apr 06:47:56 06:49:05 11° 92° (E) 06:50:14 437.200
BEESAT 3 29 Apr 06:49:53 06:51:53 14° 251° (WSW) 06:53:52 437.485
YUBILEINY 29 Apr 06:55:42 07:04:04 49° 78° (ENE) 07:12:24 435.215
RS-15 29 Apr 06:56:18 07:07:13 35° 43° (NE) 07:18:08 29.354- 29.394
STRAND 1 29 Apr 07:02:32 07:06:21 22° 67° (ENE) 07:10:10 437.568
Cubesat XI-IV 29 Apr 07:07:37 07:12:07 27° 96° (E) 07:16:36 437.490
AO-7 29 Apr 07:17:24 07:23:23 23° 303° (WNW) 07:29:24 29.400- 29.500
NOAA 15 29 Apr 07:20:39 07:25:54 59° 101° (E) 07:31:08 137.62
Cosmos 2504 29 Apr 07:22:12 07:26:20 15° 68° (ENE) 07:30:34 435.465 / 435.565
CUBESAT XI-V 29 Apr 07:28:56 07:31:54 17° 267° (W) 07:34:54 437.345
Cosmos 2491 29 Apr 07:33:11 07:41:32 50° 89° (E) 07:49:55 435.465 / 435.565
M-CUBED/EXP-1 PRIME 29 Apr 07:39:52 07:42:08 15° 97° (E) 07:44:18 437.505
NOAA 18 29 Apr 07:40:47 07:46:16 79° 104° (ESE) 07:51:42 137.9125
AIST 2 29 Apr 07:43:52 07:48:01 77° 60° (ENE) 07:52:08 435.215
HORYU 2 29 Apr 07:46:39 07:47:21 10° 296° (WNW) 07:48:02 437.375
GOMX 1 29 Apr 07:48:38 07:53:39 36° 96° (E) 07:58:28 467.674
SO-50 29 Apr 07:50:52 07:54:29 21° 110° (ESE) 07:58:09 436.795
BRITE-PL 29 Apr 07:52:37 07:58:21 82° 101° (E) 08:04:00 437.365/2234.400
AUBIESAT-1 29 Apr 08:01:36 08:04:42 22° 99° (E) 08:07:36 437.475
CUTE-I 29 Apr 08:03:54 08:09:14 82° 285° (WNW) 08:14:33 437.470
DOVE 4 29 Apr 08:06:31 08:10:45 25° 94° (E) 08:14:47 437.250
LilacSat-2 29 Apr 08:20:00 08:23:34 38° 286° (WNW) 08:27:05 437.200
HO-68 29 Apr 08:26:55 08:31:33 18° 93° (E) 08:36:08 435.675
STRAND 1 29 Apr 08:40:30 08:45:14 38° 262° (W) 08:49:59 437.568
Cubesat XI-IV 29 Apr 08:47:29 08:52:07 32° 291° (WNW) 08:56:47 437.490
CANX-2 29 Apr 08:52:52 08:56:12 22° 95° (E) 08:59:32 2200.000
YUBILEINY 29 Apr 08:53:08 09:00:25 31° 275° (W) 09:07:45 435.215
NOAA 15 29 Apr 09:02:02 09:05:08 16° 296° (WNW) 09:08:15 137.62
PRISM 29 Apr 09:06:30 09:10:33 88° 77° (ENE) 09:14:39 437.425
RS-15 29 Apr 09:08:32 09:20:46 73° 246° (WSW) 09:32:55 29.354- 29.394
ISS 29 Apr 09:09:42 09:12:56 74° 137° (SE) 09:16:12 145.825
Cosmos 2504 29 Apr 09:12:52 09:20:26 85° 266° (W) 09:28:35 435.465 / 435.565
AAUSAT CUBESAT 2 29 Apr 09:13:07 09:15:04 13° 93° (E) 09:17:00 437.432
M-CUBED/EXP-1 PRIME 29 Apr 09:13:15 09:16:50 31° 294° (WNW) 09:20:10 437.505
CINEMA 3 29 Apr 09:20:12 09:24:41 44° 98° (E) 09:28:56 145.822/145.860
NOAA 18 29 Apr 09:24:02 09:26:11 12° 299° (WNW) 09:28:20 137.9125
CUTE 1.7 + AOD 2 29 Apr 09:25:52 09:29:58 49° 100° (E) 09:34:02 437.475
GOMX 1 29 Apr 09:27:01 09:31:28 26° 292° (WNW) 09:35:47 467.674
SO-50 29 Apr 09:30:04 09:34:41 41° 305° (NW) 09:39:21 436.795
Cosmos 2491 29 Apr 09:30:56 09:38:33 32° 287° (WNW) 09:46:14 435.465 / 435.565
BRITE-PL 29 Apr 09:33:31 09:36:02 13° 297° (WNW) 09:38:32 437.365/2234.400
AUBIESAT-1 29 Apr 09:36:04 09:39:04 21° 297° (WNW) 09:41:55 437.475
DOVE 4 29 Apr 09:43:50 09:48:24 32° 290° (WNW) 09:52:46 437.250
UNISAT 6 29 Apr 09:57:06 09:59:02 12° 65° (ENE) 10:00:58 437.425
SEEDS 29 Apr 10:00:37 10:04:49 84° 281° (WNW) 10:08:59 437.485
COMPASS 1 29 Apr 10:11:39 10:15:49 88° 281° (W) 10:19:58 437.405
HO-68 29 Apr 10:12:39 10:19:46 71° 288° (WNW) 10:26:52 435.675
TIGRISAT 29 Apr 10:14:40 10:17:52 19° 68° (ENE) 10:21:04 435.000
CANX-2 29 Apr 10:28:33 10:31:58 24° 289° (WNW) 10:35:23 2200.000
Oscar 11 29 Apr 10:30:47 10:34:55 44° 99° (E) 10:39:01 145.826/435.025
CUBEBUG 2 29 Apr 10:35:07 10:39:30 82° 281° (W) 10:43:42 437.445
UWE-3 29 Apr 10:36:22 10:40:38 69° 101° (E) 10:44:48 435.000/436.395/437.385
FUNcube-1 29 Apr 10:36:35 10:40:33 40° 98° (E) 10:44:27 145.935
ANTELSAT 29 Apr 10:36:53 10:41:05 34° 72° (ENE) 10:45:15 437.575/2403.000
AAUSAT CUBESAT 2 29 Apr 10:46:49 10:50:42 40° 286° (WNW) 10:54:35 437.432
ISS 29 Apr 10:47:55 10:49:44 14° 333° (NNW) 10:51:34 145.825
CINEMA 3 29 Apr 10:58:37 11:01:22 16° 294° (WNW) 11:04:03 145.822/145.860
DELFI C3 29 Apr 10:58:40 11:02:29 43° 99° (E) 11:06:17 145.870
CUTE 1.7 + AOD 2 29 Apr 11:03:46 11:05:20 12° 294° (WNW) 11:06:54 437.475
Cosmos 2504 29 Apr 11:10:10 11:12:44 12° 280° (W) 11:15:23 435.465 / 435.565
ZACube-1 29 Apr 11:16:29 11:20:38 58° 285° (WNW) 11:24:42 437.345
HUMSAT D 29 Apr 11:19:35 11:23:14 31° 97° (E) 11:26:52 437.325/437.525
QB50P2 29 Apr 11:21:58 11:25:06 20° 69° (ENE) 11:28:13 145.880/145.840
POLYITAN 1 29 Apr 11:24:01 11:27:11 20° 69° (ENE) 11:30:21 437.675
PHONESAT 2.4 29 Apr 11:24:09 11:26:40 22° 147° (SSE) 11:29:13 2401.200-2431.200
RS-15 29 Apr 11:25:41 11:31:04 14° 264° (W) 11:36:27 29.354- 29.394
DUCHIFAT 1 29 Apr 11:27:26 11:30:30 20° 69° (ENE) 11:33:34 145.980
POPSAT HIP 1 29 Apr 11:27:38 11:30:54 22° 69° (ENE) 11:34:11 437.405
UNISAT 6 29 Apr 11:30:35 11:35:13 60° 259° (W) 11:39:49 437.425
QB50P1 29 Apr 11:31:05 11:34:30 24° 70° (ENE) 11:37:57 145.935-145.965
TIGRISAT 29 Apr 11:49:53 11:54:15 38° 262° (W) 11:58:35 435.000
AISAT 29 Apr 11:56:40 11:57:47 11° 92° (E) 11:58:54 437.250
ESTCUBE 1 29 Apr 11:57:12 12:00:00 16° 94° (E) 12:02:46 437.505/2401.250
HO-68 29 Apr 12:04:08 12:06:13 11° 306° (NW) 12:08:18 435.675
NANOSAT C BR1 29 Apr 12:07:18 12:11:31 62° 76° (ENE) 12:15:45 145.865
Oscar 11 29 Apr 12:08:27 12:10:38 14° 293° (WNW) 12:12:48 145.826/435.025
FUNcube-1 29 Apr 12:14:15 12:16:24 14° 293° (WNW) 12:18:33 145.935
ANTELSAT 29 Apr 12:14:21 12:17:48 20° 265° (W) 12:21:16 437.575/2403.000
BUGSAT 1 29 Apr 12:25:14 12:29:12 43° 74° (ENE) 12:33:14 437.445
DELFI C3 29 Apr 12:35:27 12:36:56 12° 293° (WNW) 12:38:27 145.870
GONETS M04 29 Apr 12:39:14 12:47:45 53° 79° (ENE) 12:56:08
CUBEBUG 1 29 Apr 12:42:16 12:46:23 36° 98° (E) 12:50:27 437.445
HUMSAT D 29 Apr 12:55:59 12:58:36 17° 292° (WNW) 13:01:12 437.325/437.525
QB50P2 29 Apr 12:56:56 13:00:41 29° 263° (W) 13:04:27 145.880/145.840
VELOX 1 29 Apr 12:58:37 13:03:02 57° 101° (E) 13:07:25 145.980
POLYITAN 1 29 Apr 12:59:02 13:02:47 29° 263° (W) 13:06:33 437.675
PHONESAT 2.4 29 Apr 13:00:14 13:03:22 65° 341° (NNW) 13:06:31 2401.200-2431.200
AIST 1 29 Apr 13:01:45 13:06:11 83° 83° (E) 13:10:36
DUCHIFAT 1 29 Apr 13:02:14 13:05:58 30° 263° (W) 13:09:44 145.980
POPSAT HIP 1 29 Apr 13:02:52 13:06:30 27° 263° (W) 13:10:11 437.405
QB50P1 29 Apr 13:06:41 13:10:10 24° 264° (W) 13:13:41 145.935-145.965
DX 1 29 Apr 13:09:27 13:13:51 69° 103° (ESE) 13:18:12 434.975-435.025
AO-85 29 Apr 13:11:27 13:15:12 19° 108° (ESE) 13:18:57 145.980
50 SAT 29 Apr 13:17:44 13:21:19 57° 285° (WNW) 13:24:54 437.505
UKube-1 29 Apr 13:23:21 13:27:43 81° 104° (ESE) 13:32:02 .
AISAT 29 Apr 13:30:11 13:34:35 57° 285° (WNW) 13:38:56 437.250
Cosmos 2499 29 Apr 13:30:46 13:38:23 61° 81° (E) 13:46:34 435.465 / 435.565
ESTCUBE 1 29 Apr 13:32:42 13:36:56 40° 287° (WNW) 13:41:09 437.505/2401.250
JAS-2 29 Apr 13:44:40 13:50:16 68° 74° (ENE) 13:56:39 435.910
Oscar 19 29 Apr 13:52:51 13:57:50 52° 73° (ENE) 14:02:52 437.125/150
SPROUT 29 Apr 14:00:43 14:05:01 73° 283° (WNW) 14:09:16 437.525
BUGSAT 1 29 Apr 14:02:50 14:04:45 13° 267° (W) 14:06:43 437.445
CUBEBUG 1 29 Apr 14:19:23 14:22:21 18° 292° (WNW) 14:25:19 437.445
AO-7 29 Apr 14:30:58 14:35:15 15° 52° (NE) 14:39:32 29.400- 29.500
GONETS M04 29 Apr 14:36:53 14:44:02 29° 276° (W) 14:51:08
VELOX 1 29 Apr 14:37:20 14:38:58 12° 295° (WNW) 14:40:35 145.980
SWISSCUBE 29 Apr 14:37:39 14:40:12 14° 93° (E) 14:42:45 437.505
PHONESAT 2.4 29 Apr 14:37:41 14:40:33 31° 357° (N) 14:43:25 2401.200-2431.200
TISAT 1 29 Apr 14:49:28 14:53:41 70° 284° (WNW) 14:57:52 437.305
AO-85 29 Apr 14:49:58 14:55:17 54° 303° (WNW) 15:00:37 145.980
Gurwin Techsat 1B 29 Apr 14:54:58 15:00:16 83° 76° (ENE) 15:05:37 435.225
ITAMSAT 1 29 Apr 15:03:01 15:07:50 40° 71° (ENE) 15:12:39 435.822/435.867
BEESAT 29 Apr 15:09:59 15:14:09 29° 97° (E) 15:18:17 436.000
Cosmos 2499 29 Apr 15:25:13 15:30:55 23° 275° (W) 15:36:55 435.465 / 435.565
JAS-2 29 Apr 15:33:11 15:36:06 14° 272° (W) 15:39:12 435.910
Oscar 19 29 Apr 15:34:22 15:37:25 16° 267° (W) 15:40:29 437.125/150
ISS 29 Apr 15:40:16 15:42:59 23° 33° (NNE) 15:45:40 145.825
ITUPSAT 1 29 Apr 16:01:56 16:06:42 76° 285° (WNW) 16:11:27 437.325
SWISSCUBE 29 Apr 16:13:38 16:18:13 49° 287° (WNW) 16:22:48 437.505
PHONESAT 2.4 29 Apr 16:14:44 16:17:49 45° 14° (NNE) 16:20:53 2401.200-2431.200
MOZHAYETS 4 29 Apr 16:17:45 16:18:39 11° 91° (E) 16:19:34
AO-7 29 Apr 16:18:25 16:26:40 78° 71° (ENE) 16:34:58 29.400- 29.500
O/OREOS (USA 219) 29 Apr 16:24:42 16:29:18 83° 291° (WNW) 16:33:55 437.305
SO-50 29 Apr 16:27:16 16:27:43 10° 41° (NE) 16:28:11 436.795
KKS-1 29 Apr 16:39:46 16:43:48 32° 98° (E) 16:47:47 437.445
ITAMSAT 1 29 Apr 16:43:35 16:47:23 21° 265° (W) 16:51:14 435.822/435.867
BEESAT 29 Apr 16:47:58 16:51:46 24° 291° (WNW) 16:55:34 436.000
CUSAT 1 29 Apr 16:52:18 16:55:13 47° 283° (WNW) 16:58:51 437.405
DANDE 29 Apr 17:01:07 17:03:40 52° 96° (E) 17:06:35 436.750
HORYU 2 29 Apr 17:01:55 17:06:06 40° 72° (ENE) 17:10:17 437.375
STARS 29 Apr 17:06:49 17:10:47 32° 98° (E) 17:14:43 437.465
PCSat 29 Apr 17:16:15 17:21:40 87° 295° (WNW) 17:27:08 145.827
ISS 29 Apr 17:16:32 17:19:26 30° 228° (SW) 17:22:20 145.825
NOAA 18 29 Apr 17:27:00 17:29:34 14° 62° (ENE) 17:32:09 137.9125
CUTE-I 29 Apr 17:45:57 17:48:34 14° 63° (ENE) 17:51:11 437.470
Cosmos 2491 29 Apr 17:48:32 17:54:42 20° 68° (ENE) 18:00:48 435.465 / 435.565
CUBESAT XI-V 29 Apr 17:51:32 17:53:29 12° 92° (E) 17:55:25 437.345
MOZHAYETS 4 29 Apr 17:51:39 17:56:09 60° 285° (WNW) 18:00:39
PHONESAT 2.4 29 Apr 17:51:41 17:54:40 38° 210° (SSW) 17:57:39 2401.200-2431.200
SO-50 29 Apr 18:04:18 18:09:01 79° 60° (ENE) 18:13:33 436.795
AO-7 29 Apr 18:14:40 18:20:07 19° 266° (W) 18:25:35 29.400- 29.500
KKS-1 29 Apr 18:16:52 18:20:07 20° 292° (WNW) 18:23:21 437.445
M-CUBED/EXP-1 PRIME 29 Apr 18:22:44 18:25:46 17° 62° (ENE) 18:28:49 437.505
Cubesat XI-IV 29 Apr 18:26:35 18:31:21 34° 70° (ENE) 18:36:08 437.490
NOAA 15 29 Apr 18:37:37 18:42:49 69° 74° (ENE) 18:48:05 137.62
HORYU 2 29 Apr 18:40:06 18:42:47 16° 266° (W) 18:45:28 437.375
STARS 29 Apr 18:43:45 18:46:53 19° 292° (WNW) 18:50:00 437.465
AUBIESAT-1 29 Apr 18:44:02 18:47:41 23° 64° (ENE) 18:51:19 437.475
GOMX 1 29 Apr 18:53:44 18:57:46 26° 68° (ENE) 19:02:01 467.674
HO-68 29 Apr 18:57:34 18:58:01 10° 53° (NE) 18:58:28 435.675
LilacSat-2 29 Apr 18:58:22 19:02:12 60° 76° (ENE) 19:06:03 437.200
BRITE-PL 29 Apr 19:00:23 19:04:56 63° 74° (ENE) 19:09:53 437.365/2234.400
BEESAT 3 29 Apr 19:00:23 19:02:29 14° 109° (ESE) 19:04:36 437.485
PCSat 29 Apr 19:03:34 19:05:51 12° 314° (NW) 19:08:07 145.827
NOAA 18 29 Apr 19:04:02 19:09:33 75° 257° (WSW) 19:15:04 137.9125
DOVE 4 29 Apr 19:09:03 19:12:32 19° 66° (ENE) 19:16:08 437.250
